Simultaneous Nadir Overpasses (SNOs) Predictions

Prediction of SNOs between GOES-16 and METOP-C Satellite Orbit:

Table of predicted SNOs for the next 14.0 days since TLE Epoch: 5/11/2019
Index Date Time (GOES-16) GOES-16 Lat,Lon METOP-C Lat,Lon Distance(km) Time Diff (sec)
1 05/12/2019 02:43:20 -0.00, -75.19 -0.58, -77.74 291.82 80
2 05/13/2019 02:20:01 -0.00, -75.19 0.56, -72.76 277.39 80
3 05/14/2019 14:38:53 0.00, -75.21 0.48, -77.31 240.18 80
4 05/15/2019 14:20:54 0.00, -75.21 -0.66, -72.32 329.52 80
5 05/17/2019 02:39:55 -0.00, -75.21 -0.39, -76.92 194.68 80
6 05/18/2019 02:16:37 0.00, -75.22 0.75, -71.93 375.26 80
7 05/19/2019 14:35:28 -0.01, -75.25 0.29, -76.49 141.45 80
8 05/20/2019 14:17:30 -0.01, -75.26 -0.85, -71.50 428.85 80
9 05/22/2019 02:36:31 0.01, -75.27 -0.19, -76.10 94.31 80
10 05/23/2019 02:13:13 0.01, -75.29 0.95, -71.11 476.32 80
11 05/24/2019 14:32:05 -0.01, -75.32 0.05, -75.67 39.45 80




NCC Satellite Simultaneous Nadir Overpasses (SNOs) Prediction Service
